Home   Weather   Compton   Past weeks

Flag for USA Past Weather in Compton, California, USA — Yesterday and Last 2 Weeks

Now
77 °F

Clear.


Feels Like: 78 °F
Forecast: 70 / 96 °F
Wind: No wind

Location: Hawthorne Municipal Airport

Current Time: Sep 26, 2016 at 12:14:49 AM

Latest Report: Sep 25, 2016 at 10:53 PM


Visibility: 10 mi

Pressure: 29.93 "Hg

Humidity: 42%

Dew Point: 52 °F

Location of ComptonLocation

Past Weather in Compton — Graph

°F

Compton Temperature Yesterday

Maximum temperature yesterday: 93 °F (at 12:53 PM)
Minimum temperature yesterday: 64 °F (at 5:53 AM)
Average temperature yesterday: 78 °F

High & Low Weather Summary for the Past Weeks

 TemperatureHumidityPressure
High93 °F (Sep 25, 12:53 PM)100% (Sep 18, 7:53 AM)30.09 "Hg (Sep 18, 7:53 AM)
Low60 °F (Sep 14, 5:53 AM)13% (Sep 25, 10:53 AM)29.83 "Hg (Sep 21, 4:53 PM)
Average70 °F69%29.95 "Hg
* Reported Sep 10 10:53 PM — Sep 25 10:53 PM, Compton, Weather by CustomWeather, © 2016

Note: Actual official high and low records may vary slightly from our data, if they occured in-between our weather recording intervals... More about our weather records

Advertising

Compton Weather History for the Previous 24 Hours

Scroll right to see more
 ConditionsComfort  
Time TempWeatherWind HumidityBarometerVisibility
10:53 PM
Sun, Sep 25
77 °FClear.No wind42%29.93 "Hg10 mi
9:53 PM76 °FClear.No wind48%29.93 "Hg10 mi
8:53 PM77 °FClear.No wind47%29.91 "Hg10 mi
7:53 PM77 °FClear.3 mph47%29.90 "Hg10 mi
6:53 PM79 °FClear.8 mph42%29.88 "Hg10 mi
5:53 PM84 °FSunny.7 mph30%29.88 "Hg10 mi
4:53 PM86 °FSunny.8 mph25%29.89 "Hg10 mi
3:53 PM89 °FSunny.10 mph20%29.90 "Hg10 mi
2:53 PM86 °FSunny.10 mph36%29.92 "Hg10 mi
1:53 PM89 °FSunny.9 mph30%29.93 "Hg10 mi
12:53 PM93 °FSunny.12 mph15%29.95 "Hg10 mi
11:53 AM92 °FSunny.5 mph13%29.98 "Hg10 mi
10:53 AM90 °FSunny.5 mph13%30.00 "Hg10 mi
9:53 AM85 °FSunny.3 mph19%30.01 "Hg10 mi
8:53 AM74 °FSunny.No wind36%30.01 "Hg10 mi
7:53 AM67 °FSunny.3 mph51%30.01 "Hg10 mi
6:53 AM64 °FSunny.No wind58%30.00 "Hg10 mi
5:53 AM64 °FClear.No wind63%29.97 "Hg10 mi
4:53 AM65 °FClear.No wind59%29.97 "Hg10 mi
3:53 AM66 °FClear.No wind56%29.96 "Hg10 mi
2:53 AM67 °FClear.No wind61%29.97 "Hg10 mi
1:53 AM68 °FClear.No wind57%29.98 "Hg10 mi
12:53 AM69 °FClear.No wind55%29.97 "Hg10 mi
Weather by CustomWeather, © 2016

See weather overviewHow to use our weather pages